Cairns, Australia

12:50 PM AEST on June 23, 2017 (GMT +1000)
Cairns International

Weather History for YBCS - January, 2012

Change the Weather History Date:

Saturday, January 28, 2012

  Actual Average Record
Temperature  
Mean Temperature 82 °F -  
Max Temperature 89 °F 88 °F 98 °F (2013)
Min Temperature 76 °F 74 °F 69 °F (2003)
Cooling Degree Days 18    
Growing Degree Days 32 (Base 50)    
Moisture  
Dew Point 76 °F    
Average Humidity 81    
Maximum Humidity 100    
Minimum Humidity 62    
Precipitation  
Precipitation 0.71 in 0.55 in - ()
Sea Level Pressure  
Sea Level Pressure 29.59 in    
Wind  
Wind Speed 6 mph ()    
Max Wind Speed 22 mph    
Max Gust Speed -    
Visibility 7.2 miles    
Events Rain , Thunderstorm    
Averages and records for this station are not official NWS values.
T = Trace of Precipitation, MM = Missing Value Source: Averaged Metar Reports

Daily Weather History Graph

Daily Weather History Graph

Search for Another Location

Airport or City:

Trip Planner

Search our weather history database for the weather conditions in past years. The results will help you decide how hot, cold, wet, or windy it might be!

Date:

Astronomy

Jan. 28, 2012 Rise Set
Actual Time 6:02 AM AEST 6:56 PM AEST
Civil Twilight 5:39 AM AEST 7:19 PM AEST
Nautical Twilight 5:12 AM AEST 7:46 PM AEST
Astronomical Twilight 4:44 AM AEST 8:14 PM AEST
Moon 9:59 AM AEST (1/28) 10:03 PM AEST (1/28)
Length of Visible Light 13h 39m
Length of Day
12h 53m
Waxing Crescent, 22% of the Moon is Illuminated
Jan 28
Waxing Crescent
Jan 31
First Quarter
Feb 8
Full
Feb 15
Last Quarter
Feb 22
New

Hourly Weather History & Observations

Time (AEST) Temp. Heat Index Dew Point Humidity Pressure Visibility Wind Dir Wind Speed Gust Speed Precip Events Conditions
12:00 AM 81 °F - 78 °F 89% 29.65 in - Calm Calm - -   Overcast
12:00 AM 80.6 °F 88.1 °F 78.8 °F 94% 29.65 in 6.2 mi Calm Calm - N/A   Mostly Cloudy
12:30 AM 80.6 °F 88.1 °F 78.8 °F 94% 29.62 in 6.2 mi West 3.5 mph - N/A   Scattered Clouds
1:00 AM 80.6 °F 87.1 °F 77.0 °F 89% 29.62 in 6.2 mi Calm Calm - N/A   Mostly Cloudy
1:30 AM 78.8 °F - 77.0 °F 94% 29.62 in - Calm Calm - N/A   Clear
2:00 AM 78.8 °F - 77.0 °F 94% 29.59 in - WNW 5.8 mph - N/A   Clear
2:30 AM 78.8 °F - 77.0 °F 94% 29.59 in - WNW 4.6 mph - N/A   Clear
3:00 AM 78.8 °F - 75.2 °F 89% 29.59 in - West 5.8 mph - N/A   Clear
3:30 AM 78.8 °F - 75.2 °F 89% 29.59 in 6.2 mi NW 6.9 mph - N/A   Partly Cloudy
4:00 AM 79 °F - 75 °F 85% 29.62 in - NW 6.9 mph - -  
4:00 AM 78.8 °F - 75.2 °F 89% 29.59 in 6.2 mi NW 6.9 mph - N/A   Partly Cloudy
4:30 AM 78.8 °F - 75.2 °F 89% 29.59 in - NW 5.8 mph - N/A   Clear
5:00 AM 78.8 °F - 73.4 °F 83% 29.59 in 6.2 mi WNW 5.8 mph - N/A   Partly Cloudy
5:30 AM 78.8 °F - 73.4 °F 83% 29.59 in 6.2 mi NW 5.8 mph - N/A   Mostly Cloudy
6:00 AM 79 °F - 72 °F 72% 29.62 in 19 mi NNW 8.1 mph - -   Partly Cloudy
6:00 AM 78.8 °F - 71.6 °F 78% 29.62 in - NNW 8.1 mph - N/A   Clear
6:30 AM 78.8 °F - 73.4 °F 83% 29.62 in 6.2 mi NNW 6.9 mph - N/A   Mostly Cloudy
7:00 AM 80 °F - 73 °F 75% 29.64 in - NW 6.9 mph - -  
7:00 AM 80.6 °F 85.4 °F 73.4 °F 79% 29.62 in 6.2 mi NW 6.9 mph - N/A   Mostly Cloudy
7:30 AM 80.6 °F 86.2 °F 75.2 °F 84% 29.62 in 6.2 mi WNW 5.8 mph - N/A   Mostly Cloudy
8:00 AM 82.4 °F 88.2 °F 73.4 °F 74% 29.62 in 6.2 mi NNW 6.9 mph - N/A   Mostly Cloudy
8:30 AM 84.2 °F 90.9 °F 73.4 °F 70% 29.62 in 6.2 mi NNW 8.1 mph - N/A   Mostly Cloudy
9:00 AM 85 °F - 74 °F 63% 29.63 in 19 mi North 10.4 mph - -   Partly Cloudy
9:00 AM 84.2 °F 92.3 °F 75.2 °F 74% 29.62 in 6.2 mi North 10.4 mph - N/A   Mostly Cloudy
9:30 AM 86.0 °F 93.4 °F 73.4 °F 66% 29.62 in 6.2 mi WNW 10.4 mph - N/A   Scattered Clouds
10:00 AM 84 °F - 73 °F 62% 29.64 in - West 12.7 mph - -  
10:00 AM 84.2 °F 90.9 °F 73.4 °F 70% 29.62 in 6.2 mi West 12.7 mph - N/A   Scattered Clouds
10:30 AM 87.8 °F 95.6 °F 73.4 °F 62% 29.62 in 6.2 mi NW 10.4 mph - N/A   Mostly Cloudy
11:00 AM 89.6 °F 99.8 °F 75.2 °F 62% 29.59 in 6.2 mi NW 9.2 mph - N/A   Mostly Cloudy
11:30 AM 87.8 °F 99.7 °F 77.0 °F 70% 29.59 in 6.2 mi North 12.7 mph - N/A   Mostly Cloudy
12:00 PM 87 °F - 78 °F 68% 29.60 in 19 mi North 13.8 mph - -   Partly Cloudy
12:00 PM 86.0 °F 96.9 °F 77.0 °F 74% 29.59 in 6.2 mi North 13.8 mph - N/A   Scattered Clouds
12:30 PM 87.8 °F 99.7 °F 77.0 °F 70% 29.56 in 6.2 mi North 11.5 mph - N/A   Mostly Cloudy
1:00 PM 87 °F - 78 °F 68% 29.59 in - North 13.8 mph - -  
1:00 PM 86.0 °F 99.3 °F 78.8 °F 79% 29.56 in 6.2 mi North 13.8 mph - N/A   Mostly Cloudy
1:30 PM 87.8 °F 99.7 °F 77.0 °F 70% 29.56 in 6.2 mi North 12.7 mph - N/A   Scattered Clouds
2:00 PM 86.0 °F 99.3 °F 78.8 °F 79% 29.56 in 6.2 mi North 12.7 mph - N/A   Mostly Cloudy
2:30 PM 87.8 °F 102.5 °F 78.8 °F 75% 29.53 in 6.2 mi North 12.7 mph - N/A   Mostly Cloudy
3:00 PM 87 °F - 78 °F 68% 29.54 in 19 mi North 10.4 mph - -   Partly Cloudy
3:00 PM 87.8 °F 99.7 °F 77.0 °F 70% 29.53 in 6.2 mi North 10.4 mph - N/A   Mostly Cloudy
3:30 PM 87.8 °F 102.5 °F 78.8 °F 75% 29.53 in 6.2 mi North 10.4 mph - N/A   Mostly Cloudy
4:00 PM 88 °F - 78 °F 67% 29.54 in - North 11.5 mph - -  
4:00 PM 87.8 °F 102.5 °F 78.8 °F 75% 29.53 in 6.2 mi North 11.5 mph - N/A   Mostly Cloudy
4:30 PM 87.8 °F 102.5 °F 78.8 °F 75% 29.53 in 6.2 mi North 11.5 mph - N/A   Mostly Cloudy
5:00 PM 87.8 °F 102.5 °F 78.8 °F 75% 29.53 in 6.2 mi North 10.4 mph - N/A   Mostly Cloudy
5:30 PM 86.0 °F 99.3 °F 78.8 °F 79% 29.53 in 6.2 mi North 10.4 mph - N/A   Mostly Cloudy
6:00 PM 86 °F - 79 °F 75% 29.56 in 19 mi North 8.1 mph - -   Partly Cloudy
6:00 PM 86.0 °F 99.3 °F 78.8 °F 79% 29.53 in 6.2 mi North 8.1 mph - N/A   Mostly Cloudy
6:30 PM 84.2 °F 96.1 °F 78.8 °F 84% 29.56 in 6.2 mi North 6.9 mph - N/A   Mostly Cloudy
7:00 PM 84 °F - 80 °F 84% 29.58 in - North 8.1 mph - -  
7:00 PM 84.2 °F 98.3 °F 80.6 °F 89% 29.56 in 6.2 mi North 8.1 mph - N/A   Mostly Cloudy
7:12 PM 84.2 °F 96.1 °F 78.8 °F 84% 29.56 in 2.5 mi NNW 9.2 mph - N/A Rain , Thunderstorm Thunderstorms and Rain
7:16 PM 78.8 °F - 77.0 °F 94% 29.59 in 0.6 mi NW 21.9 mph - N/A Rain , Thunderstorm Thunderstorms and Rain
7:30 PM 77.0 °F - 77.0 °F 100% 29.59 in 2.5 mi NW 9.2 mph - N/A Rain , Thunderstorm Thunderstorms and Rain
8:00 PM 77.0 °F - 77.0 °F 100% 29.62 in 3.7 mi NNE 6.9 mph - N/A Rain , Thunderstorm Light Thunderstorms and Rain
8:30 PM 77.0 °F - 77.0 °F 100% 29.62 in 6.2 mi NW 3.5 mph - N/A Rain , Thunderstorm Light Rain Showers
9:00 PM 76 °F - 76 °F 99% 29.64 in 9 mi West 5.8 mph - - Thunderstorm Thunderstorm
9:00 PM 77.0 °F - 75.2 °F 94% 29.62 in 6.2 mi West 5.8 mph - N/A Thunderstorm Partly Cloudy
9:30 PM 77.0 °F - 75.2 °F 94% 29.62 in 6.2 mi West 6.9 mph - N/A   Mostly Cloudy
10:00 PM 77 °F - 76 °F 95% 29.65 in - SW 2.3 mph - -  
10:00 PM 77.0 °F - 75.2 °F 94% 29.62 in 6.2 mi SW 2.3 mph - N/A   Mostly Cloudy
10:30 PM 77.0 °F - 75.2 °F 94% 29.62 in 6.2 mi North 4.6 mph - N/A   Mostly Cloudy
11:00 PM 77.0 °F - 75.2 °F 94% 29.62 in 6.2 mi South 4.6 mph - N/A   Mostly Cloudy
11:30 PM 78.8 °F - 75.2 °F 89% 29.62 in 6.2 mi WSW 1.2 mph - N/A   Mostly Cloudy